CAPE
0 0 0 0 0 0 1 1 0 1 859 1469 1347 1497 1597 1478 1204 1214 974 1015 808 517
0 0 0 0 0 0 0 0 0 0 0 41 1159 1157 1264 1311 1266 1148 1141 1042 1040 896
0 0 0 0 0 0 0 0 0 0 0 1 4 635 716 972 1117 1242 1169 924 1083 1114
0 0 0 0 0 0 0 0 0 0 0 0 2 1 175 643 727 780 1098 1171 977 996
0 0 0 0 0 0 0 0 0 0 0 0 0 5 5 25 512 591 628 995 1261 1122
0 0 0 0 0 0 0 0 0 0 0 0 0 0 0 5 1 7 540 1090 1184 1322
0 0 0 0 0 0 2 0 0 0 1 0 0 0 0 0 0 0 2 291 941 1245
0 0 0 0 0 0 0 0 1 0 0 0 0 0 0 0 0 0 0 1 24 120
0 0 0 2 0 2 0 0 0 0 1 0 0 0 0 0 0 0 0 0 0 1
0 0 2 0 1 3 8 9 4 1 1 3 0 0 0 0 0 0 0 0 0 26
0 1 1 1 6 19 26 18 11 15 16 5 4 0 0 0 2 0 0 0 0 0
0 1 3 7 10 15 27 24 24 15 20 19 9 0 0 0 5 1 0 0 0 0
0 3 5 6 18 30 26 16 23 15 23 12 12 1 0 0 13 17 7 1 0 0
0 5 5 10 17 16 16 19 27 18 26 26 15 13 0 0 11 20 21 12 6 2
CIN
-0 -0 -0 -0 -0 -0 -0 -0 -0 -12 -25 -0 -2 -0 -0 -0 -0 -4 -25 -29 -59 -96
-0 -0 -0 -0 -0 -0 -0 -0 -0 -0 -0 -233 -1 -1 -0 -0 -0 -1 -11 -30 -39 -44
-0 -0 -0 -0 -0 -0 -0 -0 -0 -0 -0 -0 -10 -7 -6 -1 -0 -0 -8 -21 -26 -42
-0 -0 -0 -0 -0 -0 -0 -0 -0 -0 -0 -0 -0 -0 -79 -4 -2 -1 -0 -7 -28 -50
-0 -0 -0 -0 -0 -0 -0 -0 -0 -0 -0 -0 -0 -0 -0 -2 -1 -4 -5 -4 -2 -27
-0 -0 -0 -0 -0 -0 -0 -0 -0 -0 -0 -0 -0 -0 -0 -0 -0 -0 -4 -0 -0 -1
-0 -0 -0 -0 -0 -0 -0 -0 -0 -0 -0 -0 -0 -0 -0 -0 -0 -0 -0 -27 -1 -0
-0 -0 -0 -0 -0 -0 -0 -0 -0 -0 -0 -0 -0 -0 -0 -0 -0 -0 -0 -0 -39 -96
-0 -0 -0 -0 -0 -0 -0 -0 -0 -0 -0 -0 -0 -0 -0 -0 -0 -0 -0 -0 -0 -1
-0 -0 -0 -0 -0 -0 -0 -0 -0 -0 -0 -0 -0 -0 -0 -0 -0 -0 -0 -0 -0 -1
-0 -0 -0 -0 -0 -0 -0 -0 -0 -0 -0 -0 -0 -0 -0 -0 -0 -0 -0 -0 -0 -0
-0 -0 -0 -0 -0 -0 -0 -0 -0 -0 -0 -0 -0 -0 -0 -0 -0 -0 -0 -0 -0 -0
-0 -0 -0 -0 -0 -0 -0 -0 -0 -0 -0 -0 -0 -1 -0 -0 -0 -0 -0 -1 -0 -0
-0 -0 -0 -0 -0 -0 -0 -0 -0 -0 -0 -0 -0 -0 -0 -0 -0 -0 -0 -0 -1 -4
Wind_Speed
15 10 9 11 12 12 12 13 19 20 14 17 18 17 18 15 15 17 17 21 18 14
12 14 13 14 12 11 14 14 18 19 18 18 17 18 18 16 18 18 18 18 19 17
13 13 13 13 14 14 15 17 17 18 19 18 18 17 17 17 19 20 16 15 19 18
12 13 13 12 13 13 15 16 17 16 17 16 17 18 20 18 18 20 20 19 19 21
12 13 13 12 15 13 14 14 15 17 16 16 16 17 19 17 17 19 19 20 21 21
14 14 15 14 15 14 15 14 15 15 17 17 15 15 15 20 19 19 20 22 22 21
16 15 13 11 14 15 15 14 14 16 14 17 15 13 14 17 15 18 22 16 19 20
16 16 18 18 15 15 16 14 15 16 15 13 13 7 9 14 23 21 14 16 12 11
17 17 17 15 16 16 15 18 18 17 17 16 10 12 12 12 14 16 17 16 17 12
18 19 18 19 19 17 16 15 17 18 18 18 15 15 11 19 15 15 15 16 14 13
17 18 19 20 19 18 17 16 15 13 16 16 12 16 21 13 16 15 17 16 16 12
19 20 20 20 19 18 18 18 16 16 18 17 16 21 18 18 16 17 17 16 14 15
19 20 20 20 19 16 16 18 15 19 18 18 19 19 18 18 12 16 12 12 12 12
19 20 20 20 18 16 17 16 16 18 16 18 16 18 16 12 13 12 13 12 9 7
Wind_Direction
12 2 1 354 358 349 347 336 333 345 282 228 233 235 237 241 233 226 227 227 225 232
4 0 347 347 349 352 347 339 340 341 332 333 245 232 239 240 238 233 229 229 227 228
355 356 345 343 345 333 344 335 345 339 338 337 342 274 238 240 243 237 232 231 228 228
353 350 344 344 335 334 330 335 340 333 335 338 338 338 297 245 245 244 234 232 230 228
344 346 336 340 336 332 333 334 317 340 332 338 339 351 347 321 248 243 246 235 229 230
341 344 332 329 338 329 330 326 333 337 330 331 348 341 9 339 331 324 242 238 231 227
342 334 327 322 322 334 323 327 337 326 318 327 345 331 353 337 331 325 326 288 245 229
340 333 332 330 327 323 321 337 321 326 324 323 326 341 351 336 343 311 325 341 327 295
336 334 331 324 324 315 324 320 329 336 311 317 317 318 347 349 329 311 295 330 324 313
335 332 331 328 324 322 312 308 308 317 327 310 313 351 330 320 341 298 314 303 310 320
332 328 326 327 325 320 315 315 316 294 287 300 312 322 321 326 324 319 308 310 315 308
331 328 328 325 323 320 321 319 314 313 309 319 311 303 327 326 326 320 304 309 307 321
330 329 328 326 326 327 323 318 316 313 309 306 305 307 312 324 324 303 299 307 308 337
333 332 329 330 328 326 320 311 303 304 308 303 302 304 301 288 298 302 313 307 310 297